TimeCST,TemperatureF,Dew PointF,Humidity,Sea Level PressureIn,VisibilityMPH,Wind Direction,Wind SpeedMPH,Gust SpeedMPH,PrecipitationIn,Events,Conditions,WindDirDegrees,DateUTC
12:53 AM,43.0,14.0,31,30.12,10.0,ESE,6.9,-,N/A,,Clear,110,2013-03-03 06:53:00
1:53 AM,42.8,14.0,31,30.16,10.0,ESE,5.8,-,N/A,,Clear,120,2013-03-03 07:53:00
2:53 AM,41.0,14.0,33,30.08,10.0,SE,6.9,-,N/A,,Clear,130,2013-03-03 08:53:00
3:53 AM,39.9,14.0,35,30.06,10.0,ESE,5.8,-,N/A,,Clear,120,2013-03-03 09:53:00
4:53 AM,37.9,14.0,38,30.05,10.0,ESE,5.8,-,N/A,,Clear,120,2013-03-03 10:53:00
5:53 AM,37.0,14.0,39,30.04,10.0,SE,4.6,-,N/A,,Clear,140,2013-03-03 11:53:00
6:53 AM,30.9,12.0,46,30.06,10.0,Calm,Calm,-,N/A,,Clear,0,2013-03-03 12:53:00
7:53 AM,34.0,12.9,42,30.06,10.0,Calm,Calm,-,N/A,,Clear,0,2013-03-03 13:53:00
8:53 AM,45.0,15.1,30,30.05,10.0,Calm,Calm,-,N/A,,Clear,0,2013-03-03 14:53:00
9:53 AM,55.0,16.0,22,30.02,10.0,South,3.5,-,N/A,,Clear,180,2013-03-03 15:53:00
10:53 AM,64.9,15.1,15,29.99,10.0,SW,9.2,-,N/A,,Clear,220,2013-03-03 16:53:00
11:53 AM,73.0,12.9,10,29.95,10.0,WSW,12.7,-,N/A,,Clear,240,2013-03-03 17:53:00
12:53 PM,78.1,12.9,8,29.89,10.0,SW,16.1,21.9,N/A,,Clear,230,2013-03-03 18:53:00
1:53 PM,82.0,7.0,6,29.82,10.0,WSW,23.0,33.4,N/A,,Clear,250,2013-03-03 19:53:00
2:53 PM,84.9,5.0,5,29.77,10.0,West,19.6,27.6,N/A,,Clear,260,2013-03-03 20:53:00
3:53 PM,84.9,-0.9,4,29.75,10.0,WSW,21.9,32.2,N/A,,Clear,250,2013-03-03 21:53:00
4:53 PM,82.9,1.9,4,29.74,10.0,West,21.9,26.5,N/A,,Clear,260,2013-03-03 22:53:00
5:53 PM,81.0,-2.0,4,29.73,10.0,WSW,17.3,28.8,N/A,,Clear,250,2013-03-03 23:53:00
6:53 PM,72.0,1.0,6,29.76,10.0,SW,8.1,-,N/A,,Clear,220,2013-03-04 00:53:00
7:53 PM,66.9,3.0,8,29.77,10.0,SW,10.4,-,N/A,,Clear,230,2013-03-04 01:53:00
8:53 PM,66.0,1.0,8,29.74,10.0,WSW,6.9,-,N/A,,Clear,250,2013-03-04 02:53:00
9:53 PM,64.0,-0.0,8,29.74,10.0,SSW,11.5,-,N/A,,Clear,210,2013-03-04 03:53:00
10:53 PM,62.1,-0.0,8,29.73,10.0,WSW,11.5,-,N/A,,Clear,240,2013-03-04 04:53:00
11:53 PM,60.1,1.0,9,29.70,10.0,WSW,10.4,-,N/A,,Clear,240,2013-03-04 05:53:00